AirNav   Pilot Hours Calculator
 
 1070 users online  

7MI Flugplatz Airport
Lexington, Michigan, USA

GOING TO LEXINGTON?


FAA INFORMATION EFFECTIVE 25 APRIL 2019

Location

FAA Identifier: 7MI
Lat/Long: 43-20-30.2750N / 082-32-53.8250W
43-20.504583N / 082-32.897083W
43.3417431 / -82.5482847
(estimated)
Elevation: 700 ft. / 213 m (estimated)
Variation: 07W (1995)
From city: 5 miles N of LEXINGTON, MI
Time zone: UTC -4 (UTC -5 during Standard Time)
Zip code: 48401

Airport Operations

Airport use: Open to the public
Activation date: 07/2000
Control tower: no
ARTCC: CLEVELAND CENTER
FSS: LANSING FLIGHT SERVICE STATION
NOTAMs facility: LAN (NOTAM-D service available)
Attendance: IRREG
Wind indicator: yes
Segmented circle: no

Airport Communications

CTAF: 122.9

Airport Services

Fuel available: 100LL
EMERGENCY ONLY

Runway Information

Runway 9/27

Dimensions: 3873 x 80 ft. / 1180 x 24 m
Surface: turf, in good condition
Runway edge markings: 3 FT YELLOW CONES.
RUNWAY 9  RUNWAY 27
Latitude: 43-20.467500N43-20.541667N
Longitude: 082-33.330833W082-32.463333W
Elevation: 669.0 ft.645.0 ft.
Traffic pattern: leftleft
Runway heading: 090 magnetic, 083 true270 magnetic, 263 true
Displaced threshold: 600 ft.1276 ft.
Obstructions: 18 ft. road, 48 ft. from runway, 2:1 slope to clear
APCH RATIO 36:1 AT DSPLCD THLD.
65 ft. trees, 132 ft. from runway, 2:1 slope to clear
APCH RATIO 20:1 AT DSPLCD THLD.

Airport Ownership and Management from official FAA records

Ownership: Privately-owned
Owner: WILLIAM SCHUTZLER
7126 TOWNSEND
APPLEGATE, MI 48401
Phone 810-359-7497
Manager: WILLIAM SCHUTZLER
7126 TOWNSEND
APPLEGATE, MI 48401
Phone 810-359-7497
OTHER CONTACT: GEORGE CRACKEL 6932 TOWNSEND, APPLEGATE MI 48401; 810-359-7176

Airport Operational Statistics

Aircraft based on the field: 3
Single engine airplanes: 2
Multi engine airplanes: 1
    
Aircraft operations: 200/year *
50% transient general aviation
50% local general aviation
* for 12-month period ending 31 December 2015

Additional Remarks

DEER ON AND INVOF ARPT.
FOR RY CONDITIONS CALL 810-359-7697.

Instrument Procedures

There are no published instrument procedures at 7MI.

Some nearby airports with instrument procedures:

77G - Marlette Township Airport (24 nm W)
KPHN - St Clair County International Airport (26 nm S)
KBAX - Huron County Memorial Airport (32 nm NW)
D95 - Dupont-Lapeer Airport (36 nm SW)
D98 - Romeo State Airport (38 nm SW)
 
Loc | Ops | Rwys | IFR | FBO | Links
Com | Nav | Svcs | Stats | Notes
Area around 7MI (Flugplatz Airport)
 
Road maps at: MapQuest Bing Google
 
Aerial photo
WARNING: Photo may not be current or correct
Aerial photo of 7MI (Flugplatz Airport)
Photo by Bill Schutzler
Photo taken 09-Jul-2008

Do you have a better or more recent aerial photo of Flugplatz Airport that you would like to share? If so, please send us your photo.

 
Sectional chart

 
Airport distance calculator
Flying to Flugplatz Airport? Find the distance to fly.

From to 7MI

Sunrise and sunset
Times for 19-May-2019
 Local
(UTC-4)
 Zulu
(UTC)
Morning civil twilight05:3009:30
Sunrise06:0310:03
Sunset20:5000:50
Evening civil twilight21:2401:24

Current date and time
Zulu (UTC)  19-May-2019 20:43:51
Local (UTC-4)  19-May-2019 16:43:51
 
METAR
CYZR 
23nm SE 
192025Z AUTO 23011G17KT 5SM +RA BR FEW031 OVC038 19/18 A2970 RMK SLP060 DENSITY ALT 1400FT
KPHN 
26nm S 
192000Z AUTO 21005KT 5SM -RA SCT013 BKN037 OVC046 20/17 A2971 RMK AO2
KBAX 
33nm NW 
192016Z AUTO 24007KT 10SM OVC085 19/16 A2966 RMK AO2 T01920164
KD95 
36nm SW 
192016Z AUTO 21011G16KT 10SM -RA SCT065 OVC085 21/18 A2970 RMK AO2 T02080178
KCFS 
40nm W 
192016Z AUTO 27008KT 7SM -RA SCT017 BKN050 OVC090 19/17 A2967 RMK AO2 T01900171
KP58 
42nm N 
191951Z AUTO 00000KT 13/12 A2964 RMK AO1 SLP039 P0009 T01280122
CWGD 
44nm NE 
192000Z AUTO 20017G24KT 22/16 RMK AO1 PK WND 20028/1933 SLP036 T02190155 56024
KMTC 
45nm S 
192008Z 22011G20KT 1SM +RA BR BKN020 OVC033 19/19 A2972 RMK AO2A VIS 1 7/8V7 LTG DSNT SW CIG 020V034 BKN020 V FEW CB 15SW MOV NE PRESRR SLP069 $
TAF
CYZR 
23nm SE 
191940Z 1920/2002 21020G35KT P6SM SCT100 TEMPO 1920/1921 VRB25G45KT 11/2SM TSRA BKN020 OVC040CB FM192100 19022G35KT P6SM -SHRA BKN050 TEMPO 1921/2002 5SM -SHRA BR BKN020 BKN050 PROB30 1921/2002 VRB25G45KT 11/2SM TSRA BKN020 OVC040CB RMK FCST BASED ON AUTO OBS. NXT FCST WILL BE ISSUED AT 200745Z
NOTAMs
Click for the latest NOTAMs
NOTAMs are issued by the DoD/FAA and will open in a separate window not controlled by AirNav.

 

 
 

Where to Stay: Hotels, Motels, Resorts, B&Bs, Campgrounds

 The hotels featured here are reported to be very convenient to the Flugplatz Airport. If your hotel/inn/B&B/resort is near the Flugplatz Airport, provides convenient transportation, or is otherwise attractive to pilots, flight crews, and airport users, consider listing it here.
  
 Business Name 
 
 Contact 
 
 Services / Description 
 
Distance
 
Comments
  
Butler Bed & Breakfast 810-359-5910
[web site]
[email]
Internet access, Lodging
 
Courtesy transportation   Wireless Internet Access (WiFi)  
 
More info about Butler Bed & Breakfast
6 miles
free shuttle
 
   write
Feature A Hotel
 

Would you like to see your business listed on this page?

 If your business provides an interesting product or service to pilots, flight crews, aircraft, or users of the Flugplatz Airport, you should consider listing it here.  To start the listing process, click on the button below
 
Add a business
 

Other Pages about Flugplatz Airport

Page from the Michigan Airport Directory (PDF)
 
Update a link
 
Copyright © AirNav, LLC. All rights reserved. Privacy Policy  Contact